Regional Weather Roundup
Issued by NWS

Home | Current Version | Previous Version | Graphics & Text | Print | Product List | Glossary On
Versions: 1 2 3 4 5 6 7 8 9 10 11 12 13 14 15 16 17 18 19 20 21 22 23 24 25 26 27 28 29 30 31 32 33 34 35 36 37 38 39 40 41 42 43 44 45 46 47 48 49 50
000
ASUS45 KTFX 281710
RWRMT
MONTANA REGIONAL WEATHER ROUNDUP
NATIONAL WEATHER SERVICE GREAT FALLS MT
1100 AM MDT THU APR 28 2016

NOTE: "FAIR" INDICATES FEW OR NO CLOUDS BELOW 12000 FEET WITH NO
SIGNIFICANT WEATHER AND/OR OBSTRUCTIONS TO VISIBILITY.

MTZ001>007-043-281800-
WEST OF THE DIVIDE

CITY           SKY/WX    TMP DP  RH WIND       PRES   REMARKS
KALISPELL      CLOUDY    50  30  46 NE13      30.04S
MISSOULA       CLOUDY    47  29  49 E14       30.03S
BUTTE          LGT SNOW  34  29  82 SW6       29.98S WCI  29
MULLAN PASS    CLOUDY    36  28  73 CALM      29.99R
ANACONDA         N/A     37  27  65 N13G20    30.00S WCI  29
DEER LODGE       N/A     37  28  70 N9G17     30.03S WCI  31
EUREKA           N/A     50  34  53 CALM        N/A
HAMILTON         N/A     45  27  49 N10       30.00S
LIBBY            N/A     48  34  57 CALM      30.04F
PLAINS           N/A     49  39  68 CALM      30.03S
$$

MTZ008-052>055-281800-
SOUTHWEST MONTANA

CITY           SKY/WX    TMP DP  RH WIND       PRES   REMARKS
BOZEMAN        CLOUDY    39  31  72 CALM      30.01S
DILLON         CLOUDY    40  28  62 NE18G28   29.94F
ENNIS          PTSUNNY   41  28  60 N23G29    29.97F
THREE FORKS      N/A     38  38 100 CALM      30.01S
TWIN BRIDGES     N/A     42  27  55 S20       29.94S
$$

MTZ009-010-012-014-046-048-049-054-281800-
EAST SLOPES AND CENTRAL MONTANA

CITY           SKY/WX    TMP DP  RH WIND       PRES   REMARKS
CUT BANK       CLOUDY    38  34  85 SE12      30.14F WCI  30
GREAT FALLS    LGT RAIN  36  33  89 NE12      30.10S WCI  28
MALMSTROM AFB  CLOUDY    37  34  87 E9        30.11S WCI  31
HELENA         PTSUNNY   41  30  65 N10       30.04F
CHOTEAU          N/A     36  34  93 E13       30.13S FOG     WCI  27
CONRAD           N/A     38  38 100 NE10      30.14S WCI  31
$$

MTZ011-013-016-021-045-047-050-051-281800-
NORTH CENTRAL MONTANA

CITY           SKY/WX    TMP DP  RH WIND       PRES   REMARKS
HAVRE          CLOUDY    46  35  65 N7        30.15F
LEWISTOWN      LGT SNOW  37  32  82 E8        30.10S WCI  31
N BAR RANCH    MIX PCPN  32  30  93 CALM      30.12R
CHINOOK          N/A     48  37  66 CALM      30.15F
$$

MTZ017>020-022>027-061-062-281800-
NORTHEAST MONTANA

CITY           SKY/WX    TMP DP  RH WIND       PRES   REMARKS
GLASGOW        CLOUDY    47  32  56 E13       30.15S
JORDAN           N/A     43  36  76 N10       30.12S
SIDNEY         MOSUNNY   48  28  46 NE8       30.15S
WOLF POINT     PTSUNNY   51  30  44 E12       30.16S
PLENTYWOOD       N/A     50  18  27 E13G20    30.17S
POPLAR           N/A     46  28  49 NE10      30.16S
SCOBEY           N/A     51  23  33 NE10      30.14R
$$

MTZ028>42-056>058-281800-
SOUTHCENTRAL AND SOUTHEAST MONTANA

CITY           SKY/WX    TMP DP  RH WIND       PRES   REMARKS
BAKER          LGT RAIN  37  32  82 NE12      30.10R WCI  29
BILLINGS       LGT SNOW  33  32  96 NE10      30.09S FOG     WCI  25
LIVINGSTON     LGT SNOW  34  30  85 E21       30.02S FOG     WCI  22
MILES CITY     CLOUDY    43  36  76 N10       30.10S
EKALAKA          N/A     34  32  92 NE3       30.04R
FORSYTH          N/A     37  37 100 N9        30.12S WCI  31
LAUREL           N/A     34  29  82 N6        30.06S WCI  29
ROUNDUP          N/A     33  30  89 NE6       30.02R WCI  27
$$

REGIONAL REPORTS...DAKOTAS

CITY           SKY/WX    TMP DP  RH WIND       PRES   REMARKS
WILLISTON      CLOUDY    50  25  37 E7        30.16S
MINOT          MOSUNNY   54  19  25 NE9       30.14F
DICKINSON      CLOUDY    41  31  67 E8        30.09R
BEACH          CLOUDY    39  32  75 E12       30.14R WCI  32
CROSBY           N/A     54  16  22 E15       30.19F
TIOGA            N/A     48  16  27 E13G21    30.20S
WATFORD CITY     N/A     46  27  46 E8        30.15S
BISMARCK       CLOUDY    50  31  48 N7        30.11R
GRAND FORKS    PTSUNNY   54  19  25 NE16G23   30.12S
FARGO          CLOUDY    53  19  26 N8G20     30.06F
BUFFALO SD       N/A     36  32  85 NE14      30.01R WCI  27
RAPID CITY     CLOUDY    35  33  92 NW10      30.05R WCI  27
$$

REGIONAL REPORTS...WYOMING/IDAHO/WASHINGTON

CITY           SKY/WX    TMP DP  RH WIND       PRES   REMARKS
GILLETTE       LGT SNOW  33  31  92 N8        30.03R FOG     WCI  26
SHERIDAN       CLOUDY    37  33  85 NE8       30.06R WCI  31
BUFFALO WY     CLOUDY    34  28  79 N6        30.03R WCI  29
CODY           CLOUDY    34  28  80 N13       30.00S WCI  25
YELLOWSTONE LA   N/A     33  21  61 VRB5      29.90S
IDAHO FALLS    MOSUNNY   52  28  39 N15       29.82F
SALMON         CLOUDY    46  27  46 E5        29.92S
BOISE            N/A     55  42  61 NW6       29.84F
SPOKANE        PTSUNNY   57  36  45 VRB6      29.99S
$$

REGIONAL REPORTS...ALBERTA

CITY           SKY/WX    TMP DP  RH WIND       PRES   REMARKS
EDMONTON       MOSUNNY   54  34  47 S12G17    30.14S
CALGARY        CLOUDY    43  32  65 S15       30.12F
LETHBRIDGE     PTSUNNY   45  34  65 S7G20     30.16F
MEDICINE HAT   CLOUDY    50  36  57 N8        30.18F
$$

REGIONAL REPORTS...SASKATCHEWAN

CITY           SKY/WX    TMP DP  RH WIND       PRES   REMARKS
REGINA         PTSUNNY   54  16  22 E14       30.22S
SASKATOON      PTSUNNY   55  25  30 SE8       30.26S
$$



USA.gov is the U.S. government's official web portal to all federal, state and local government web resources and services.